GW1374 Weather Reports


Display with metric or nautical units.
time (UTC)temp
F
wind
direction
speed
MPH
gust
MPH
rain 1hr
in
rain 24hr
in
rain mn
in
humidity
%
barometer
mb
20260901220105 75 0 0.0 2.0 0.00 0.78 0.61 89 1015.5
20260901214551 76 0 0.0 1.0 0.00 0.79 0.61 90 1015.5
20260901213107 75 232 0.0 2.0 0.00 0.79 0.61 90 1015.6
20260901211558 75 0 0.0 2.0 0.00 0.79 0.61 90 1015.0
20260901210053 75 0 1.0 3.0 0.00 0.79 0.61 91 1015.3
20260901204550 74 51 0.0 1.0 0.00 0.84 0.61 95 1015.2
20260901203105 74 0 0.0 1.0 0.00 0.84 0.61 95 1015.4
20260901201553 74 0 0.0 2.0 0.00 0.84 0.61 95 1015.5
20260901200054 74 0 0.0 2.0 0.00 0.84 0.61 97 1015.6
20260901194548 73 9 0.0 2.0 0.00 0.92 0.61 97 1015.7
20260901193100 73 0 0.0 2.0 0.00 0.92 0.61 98 1015.6
20260901191614 73 9 0.0 2.0 0.00 0.92 0.61 98 1015.5
20260901190056 73 0 0.0 2.0 0.00 0.92 0.61 98 1015.6
20260901184552 73 0 0.0 2.0 0.00 0.92 0.61 98 1015.4
20260901183053 72 205 0.0 2.0 0.00 0.92 0.61 98 1015.6
20260901181549 72 162 0.0 2.0 0.00 0.92 0.61 98 1015.1
20260901180058 72 0 0.0 2.0 0.00 0.92 0.61 98 1015.1
20260901174553 71 0 0.0 2.0 0.00 0.96 0.61 98 1015.3
20260901173059 72 0 0.0 2.0 0.00 0.96 0.61 98 1015.0
20260901171606 71 137 0.0 2.0 0.00 0.96 0.61 98 1015.1
20260901170054 69 0 0.0 2.0 0.00 0.96 0.61 98 1015.2
20260901164553 69 0 0.0 2.0 0.00 1.09 0.61 98 1015.3
20260901163057 69 221 0.0 1.0 0.00 1.09 0.61 98 1015.6
20260901161554 69 0 1.0 5.0 0.00 1.09 0.61 98 1015.4
20260901160105 68 178 1.0 3.0 0.00 1.09 0.61 98 1015.2
20260901154553 68 178 1.0 2.0 0.01 1.11 0.61 98 1015.5
20260901153103 68 0 0.0 2.0 0.01 1.11 0.61 98 1015.6
20260901151551 68 162 0.0 2.0 0.02 1.11 0.61 98 1015.6
20260901150056 68 137 0.0 2.0 0.02 1.11 0.61 98 1015.8
20260901144604 68 221 0.0 2.0 0.02 1.10 0.60 98 1015.4
20260901143103 67 153 0.0 2.0 0.03 1.10 0.60 98 1015.3
20260901141600 67 0 0.0 2.0 0.07 1.09 0.58 98 1015.6
20260901140055 67 0 0.0 2.0 0.20 1.09 0.58 98 1015.4
20260901134554 67 229 0.0 2.0 0.19 1.08 0.58 98 1015.4
20260901133104 67 221 0.0 2.0 0.19 1.07 0.57 98 1015.6
20260901131602 67 193 1.0 2.0 0.23 1.01 0.51 98 1015.6
20260901130055 67 221 0.0 1.0 0.16 0.89 0.39 98 1015.8
20260901124559 66 162 0.0 2.0 0.23 0.89 0.39 98 1015.7
20260901123105 66 93 1.0 3.0 0.26 0.88 0.38 98 1015.6
20260901121556 66 234 1.0 4.0 0.21 0.78 0.28 98 1016.3
20260901120054 66 257 1.0 2.0 0.16 0.73 0.23 98 1016.2
20260901114550 66 0 0.0 2.0 0.11 0.66 0.16 98 1016.1
20260901113104 66 129 0.0 3.0 0.07 0.62 0.12 98 1015.7
20260901111553 66 0 0.0 1.0 0.02 0.57 0.07 98 1016.1
20260901110105 66 0 0.0 2.0 0.01 0.56 0.06 98 1015.4
20260901104606 66 0 0.0 1.0 0.00 0.55 0.05 98 1015.4
20260901103055 66 64 0.0 2.0 0.00 0.55 0.05 98 1015.8
20260901101552 66 221 0.0 2.0 0.00 0.55 0.05 98 1015.5
20260901094557 65 221 1.0 2.0 0.00 0.55 0.05 98 1015.7
20260901093055 65 221 0.0 2.0 0.00 0.55 0.05 98 1015.6
20260901091554 65 0 0.0 2.0 0.01 0.55 0.05 98 1015.5
20260901084558 65 196 1.0 2.0 0.05 0.55 0.05 98 1015.8
20260901083054 65 153 0.0 1.0 0.05 0.55 0.05 97 1016.1
20260901081551 65 0 0.0 2.0 0.04 0.54 0.04 97 1016.5
20260901074555 65 265 0.0 2.0 0.00 0.50 0.00 98 1016.5
20260901073055 65 0 0.0 2.0 0.00 0.50 0.00 98 1016.4
20260901071559 65 0 0.0 2.0 0.00 0.50 0.00 98 1016.3
20260901070106 65 0 0.0 2.0 0.00 0.50 0.00 97 1016.6
20260901064555 65 215 0.0 2.0 0.00 0.50 0.00 97 1016.6
20260901063053 65 0 0.0 2.0 0.00 0.50 0.00 97 1016.5
20260901061552 65 232 0.0 2.0 0.00 0.50 0.00 97 1016.7
20260901060058 65 238 0.0 2.0 0.00 0.50 0.00 97 1016.7
20260901054554 65 0 0.0 2.0 0.00 0.50 0.00 97 1017.1
20260901053101 65 0 0.0 2.0 0.00 0.50 0.00 97 1017.2
20260901051555 65 221 0.0 2.0 0.00 0.50 0.00 97 1017.2
20260901050053 65 0 0.0 1.0 0.00 0.50 0.00 97 1017.2
20260901044553 65 0 0.0 2.0 0.00 0.50 0.00 97 1017.3
20260901043058 65 221 0.0 2.0 0.00 0.50 0.00 97 1017.4
20260901041613 65 0 0.0 2.0 0.00 0.50 0.00 97 1017.5
20260901040107 65 0 0.0 1.0 0.00 0.50 0.00 97 1017.4
20260901034558 65 221 0.0 1.0 0.00 0.50 0.50 97 1017.4
20260901033053 65 0 0.0 2.0 0.00 0.50 0.50 97 1017.5
20260901031557 65 232 0.0 2.0 0.01 0.50 0.50 97 1017.5
20260901030054 65 0 0.0 1.0 0.01 0.50 0.50 97 1017.5
20260901024553 65 0 0.0 1.0 0.01 0.50 0.50 97 1017.5
20260901023058 65 0 0.0 1.0 0.01 0.50 0.50 97 1017.6
20260901021557 65 0 0.0 1.0 0.03 0.49 0.49 97 1017.8
20260901020058 65 0 0.0 1.0 0.04 0.49 0.49 97 1017.7
20260901014603 65 226 0.0 2.0 0.10 0.49 0.49 97 1017.8
20260901013102 65 59 0.0 2.0 0.11 0.49 0.49 97 1018.2
20260901011606 65 67 0.0 1.0 0.08 0.46 0.46 97 1018.0
20260901010106 65 178 0.0 2.0 0.08 0.45 0.45 97 1017.7
20260901004555 65 0 0.0 1.0 0.03 0.39 0.39 97 1017.8
20260901003056 65 0 0.0 2.0 0.03 0.38 0.38 97 1017.6
20260901001555 65 232 0.0 2.0 0.03 0.38 0.38 97 1017.5
20260901000059 65 0 0.0 2.0 0.03 0.37 0.37 97 1017.5
20260831234558 65 0 0.0 2.0 0.02 0.36 0.36 97 1017.6
20260831233108 65 0 0.0 2.0 0.01 0.35 0.35 97 1017.6
20260831231551 65 196 0.0 2.0 0.01 0.35 0.35 97 1017.7
20260831230058 65 205 0.0 2.0 0.01 0.34 0.34 97 1017.9
20260831224553 65 238 0.0 3.0 0.02 0.34 0.34 97 1018.0
20260831223101 65 137 0.0 2.0 0.02 0.34 0.34 97 1018.1
20260831221559 65 162 0.0 2.0 0.02 0.34 0.34 97 1018.4